Terminal Aerodrome Forecast
Issued by NWS Binghamton, NY

Home | Current Version | Previous Version | Text Only | Print | Product List | Glossary On
Versions: 1 2 3 4 5 6 7 8 9 10 11 12 13 14 15 16 17 18 19 20 21
000
FTUS41 KBGM 270500
TAFSYR
TAF
KSYR 270535Z 2706/2806 36007KT P6SM OVC060
     FM271500 33012G20KT P6SM -SHSN OVC040
      TEMPO 2717/2721 3SM -SN OVC025
     FM280000 32010KT P6SM -SHSN OVC040=

USA.gov is the U.S. government's official web portal to all federal, state and local government web resources and services.